Location: Cactus School
(34.5700°N, 118.0931°W)
Time: 04:45:19
(UTC-08:00)

A-11 Canister half - Pass Details

Date: 25 November 2019
Orbit: 1515 x 1685 km, 47.2° (Epoch: 08 December)

Event Time Altitude Azimuth Distance (km) Brightness Sun altitude
Rises 17:38:56 0° 271° (W) 4,869 13.2 -11.6°
Reaches altitude 10° 17:42:19 10° 278° (W) 3,902 12.2 -12.2°
Maximum altitude 17:51:45 43° 348° (NNW) 2,216 9.8 -14.1°
Enters shadow 17:59:30 16° 52° (NE) 3,458 10.3 -15.6°
